| time (UTC) | temp F | wind direction | speed MPH | gust MPH | rain 1hr in | rain 24hr in | rain mn in | humidity % | barometer mb |
| 20260505034517 | 69 | 180 | 1.0 | 8.0 | 0.00 | 0.00 | 0.00 | 57 | 1000.7 |
| 20260505033017 | 69 | 0.0 | 8.0 | 0.00 | 0.00 | 0.00 | 57 | 1000.7 | |
| 20260505031517 | 69 | 0.0 | 5.0 | 0.00 | 0.00 | 0.00 | 57 | 1000.5 | |
| 20260505030019 | 69 | 0.0 | 5.0 | 0.00 | 0.00 | 0.00 | 57 | 1000.5 | |
| 20260505024537 | 69 | 225 | 1.0 | 5.0 | 0.00 | 0.00 | 0.00 | 56 | 1000.3 |
| 20260505023101 | 69 | 180 | 1.0 | 7.0 | 0.00 | 0.00 | 0.00 | 56 | 1000.2 |
| 20260505021519 | 69 | 180 | 1.0 | 8.0 | 0.00 | 0.00 | 0.00 | 57 | 999.9 |
| 20260505020017 | 69 | 0.0 | 3.0 | 0.00 | 0.00 | 0.00 | 57 | 999.7 | |
| 20260505014519 | 69 | 0.0 | 3.0 | 0.00 | 0.00 | 0.00 | 56 | 999.3 | |
| 20260505013015 | 70 | 0.0 | 3.0 | 0.00 | 0.00 | 0.00 | 55 | 999.3 | |
| 20260505011517 | 71 | 0.0 | 4.0 | 0.00 | 0.00 | 0.00 | 55 | 999.2 | |
| 20260505010015 | 71 | 0.0 | 3.0 | 0.00 | 0.00 | 0.00 | 53 | 999.3 | |
| 20260505004515 | 72 | 0.0 | 3.0 | 0.00 | 0.00 | 0.00 | 52 | 999.3 | |
| 20260505003017 | 73 | 248 | 1.0 | 8.0 | 0.00 | 0.00 | 0.00 | 50 | 999.2 |
| 20260505001515 | 73 | 0.0 | 5.0 | 0.00 | 0.00 | 0.00 | 49 | 999.3 | |
| 20260505000017 | 74 | 180 | 1.0 | 7.0 | 0.00 | 0.00 | 0.00 | 48 | 999.4 |
| 20260504234515 | 74 | 180 | 1.0 | 10.0 | 0.00 | 0.00 | 0.00 | 47 | 999.7 |
| 20260504233017 | 74 | 180 | 1.0 | 13.0 | 0.00 | 0.00 | 0.00 | 46 | 1000.0 |
| 20260504231516 | 75 | 180 | 1.0 | 10.0 | 0.00 | 0.00 | 0.00 | 43 | 1000.1 |
| 20260504230015 | 75 | 158 | 3.0 | 14.0 | 0.00 | 0.00 | 0.00 | 41 | 1000.3 |
| 20260504224535 | 76 | 158 | 3.0 | 15.0 | 0.00 | 0.00 | 0.00 | 41 | 1000.3 |
| 20260504223016 | 76 | 158 | 4.0 | 18.0 | 0.00 | 0.00 | 0.00 | 42 | 1000.3 |
| 20260504221516 | 76 | 180 | 2.0 | 11.0 | 0.00 | 0.00 | 0.00 | 46 | 1000.3 |
| 20260504220017 | 76 | 0.0 | 3.0 | 0.00 | 0.00 | 0.00 | 49 | 1000.3 | |
| 20260504214537 | 75 | 0.0 | 4.0 | 0.00 | 0.00 | 0.00 | 51 | 1000.5 | |
| 20260504213015 | 76 | 0.0 | 3.0 | 0.00 | 0.00 | 0.00 | 50 | 1000.7 | |
| 20260504211517 | 76 | 158 | 1.0 | 11.0 | 0.00 | 0.00 | 0.00 | 48 | 1001.0 |
| 20260504210017 | 76 | 158 | 1.0 | 10.0 | 0.00 | 0.00 | 0.00 | 46 | 1001.1 |
| 20260504204536 | 76 | 0.0 | 11.0 | 0.00 | 0.00 | 0.00 | 46 | 1001.1 | |
| 20260504203017 | 76 | 158 | 2.0 | 14.0 | 0.00 | 0.00 | 0.00 | 46 | 1001.2 |
| 20260504201517 | 75 | 158 | 1.0 | 8.0 | 0.00 | 0.00 | 0.00 | 49 | 1001.5 |
| 20260504200016 | 75 | 158 | 2.0 | 8.0 | 0.00 | 0.00 | 0.00 | 53 | 1001.7 |
| 20260504194516 | 75 | 158 | 1.0 | 7.0 | 0.00 | 0.00 | 0.00 | 50 | 1001.9 |
| 20260504193036 | 74 | 158 | 1.0 | 7.0 | 0.00 | 0.00 | 0.00 | 53 | 1002.1 |
| 20260504191515 | 73 | 135 | 1.0 | 12.0 | 0.00 | 0.00 | 0.00 | 56 | 1002.5 |
| 20260504190016 | 72 | 158 | 1.0 | 7.0 | 0.00 | 0.00 | 0.00 | 58 | 1002.5 |
| 20260504184516 | 71 | 0.0 | 8.0 | 0.00 | 0.00 | 0.00 | 60 | 1002.9 | |
| 20260504183016 | 70 | 158 | 1.0 | 12.0 | 0.00 | 0.00 | 0.00 | 58 | 1002.8 |
| 20260504181516 | 70 | 158 | 2.0 | 11.0 | 0.00 | 0.00 | 0.00 | 58 | 1002.7 |
| 20260504180015 | 69 | 158 | 1.0 | 11.0 | 0.00 | 0.00 | 0.00 | 59 | 1002.5 |
| 20260504174516 | 70 | 158 | 3.0 | 12.0 | 0.00 | 0.00 | 0.00 | 56 | 1002.4 |
| 20260504173016 | 71 | 158 | 3.0 | 13.0 | 0.00 | 0.00 | 0.00 | 54 | 1002.2 |
| 20260504171519 | 71 | 158 | 2.0 | 12.0 | 0.00 | 0.00 | 0.00 | 57 | 1002.3 |
| 20260504081536 | 55 | 0.0 | 5.0 | 0.00 | 0.00 | 0.00 | 60 | 1004.1 | |
| 20260504044516 | 55 | 0.0 | 2.0 | 0.00 | 0.00 | 0.00 | 58 | 1006.0 | |
| 20260504043018 | 54 | 0.0 | 6.0 | 0.00 | 0.00 | 0.00 | 58 | 1006.1 | |
| 20260504041516 | 54 | 0.0 | 2.0 | 0.00 | 0.00 | 0.00 | 60 | 1006.3 | |
| 20260504040017 | 53 | 0.0 | 2.0 | 0.00 | 0.00 | 0.00 | 62 | 1006.4 |